View from above orbital plane
|
View from above satellite
|
Ground track
|
The orbit data is extracted from the following two-line orbital elements,
1 40012U 14033C 21060.38223702 .00000239 00000-0 42746-4 0 9995
2 40012 97.6854 268.4188 0056815 249.4223 110.0885 14.74250263360271
Epoch (UTC): | 01 March 2021 09:10:25 |
Eccentricity: | 0.0056815 |
inclination: | 97.6854° |
perigee height: | 607 km |
apogee height: | 687 km |
right ascension of ascending node: | 268.4188° |
argument of perigee: | 249.4223° |
revolutions per day: | 14.74250263 |
mean anomaly at epoch: | 110.0885° |
orbit number at epoch: | 36027 |
The dashed part of the orbit path shows where the satellite is in the earth's shadow,
|
|